TimeHST,TemperatureF,Dew PointF,Humidity,Sea Level PressureIn,VisibilityMPH,Wind Direction,Wind SpeedMPH,Gust SpeedMPH,PrecipitationIn,Events,Conditions,WindDirDegrees,DateUTC
12:00 AM,69.8,66.2,88,30.09,10.0,WNW,4.6,-,0.00,Rain,Light Rain,290,2012-12-05 10:00:00
12:07 AM,71.6,66.2,83,30.09,10.0,WNW,6.9,-,0.00,Rain,Light Rain,290,2012-12-05 10:07:00
12:53 AM,71.1,68.0,90,30.06,10.0,NE,3.5,-,0.00,,Mostly Cloudy,50,2012-12-05 10:53:00
1:53 AM,72.0,68.0,87,30.03,10.0,Calm,Calm,-,0.00,,Scattered Clouds,0,2012-12-05 11:53:00
2:53 AM,70.0,66.9,90,30.01,10.0,WSW,4.6,-,N/A,,Scattered Clouds,250,2012-12-05 12:53:00
4:53 AM,71.1,68.0,90,30.04,10.0,WSW,4.6,-,N/A,,Clear,240,2012-12-05 14:53:00
5:53 AM,70.0,66.9,90,30.05,10.0,WNW,4.6,-,N/A,,Partly Cloudy,300,2012-12-05 15:53:00
6:14 AM,71.6,68.0,88,30.06,10.0,WNW,4.6,-,0.00,,Mostly Cloudy,300,2012-12-05 16:14:00
6:48 AM,71.6,68.0,88,30.08,10.0,West,5.8,-,0.00,,Mostly Cloudy,270,2012-12-05 16:48:00
6:53 AM,71.1,68.0,90,30.08,10.0,West,6.9,-,0.00,,Mostly Cloudy,280,2012-12-05 16:53:00
7:38 AM,71.6,68.0,88,30.10,10.0,West,8.1,-,0.00,Rain-Thunderstorm,Light Thunderstorms and Rain,260,2012-12-05 17:38:00
7:53 AM,71.1,68.0,90,30.09,8.0,WSW,4.6,-,0.01,Rain-Thunderstorm,Thunderstorms and Rain,240,2012-12-05 17:53:00
8:00 AM,71.6,68.0,88,30.10,8.0,West,8.1,-,0.00,Rain-Thunderstorm,Light Thunderstorms and Rain,260,2012-12-05 18:00:00
8:31 AM,71.6,69.8,94,30.10,10.0,WNW,4.6,-,0.03,Rain,Light Rain,300,2012-12-05 18:31:00
8:53 AM,72.0,69.1,91,30.12,6.0,SW,9.2,-,0.04,Thunderstorm,Overcast,220,2012-12-05 18:53:00
8:55 AM,71.6,69.8,94,30.12,2.0,SSW,8.1,-,0.01,Thunderstorm,Overcast,210,2012-12-05 18:55:00
8:58 AM,71.6,69.8,94,30.12,0.8,SW,4.6,-,0.12,Thunderstorm,Overcast,220,2012-12-05 18:58:00
9:03 AM,71.6,69.8,94,30.12,0.5,WSW,5.8,-,0.35,Fog-Thunderstorm,Unknown,250,2012-12-05 19:03:00
9:09 AM,71.6,69.8,94,30.12,2.0,West,5.8,-,0.37,Thunderstorm,Overcast,280,2012-12-05 19:09:00
9:16 AM,71.6,69.8,94,30.10,7.0,North,3.5,-,0.38,Rain-Thunderstorm,Light Thunderstorms and Rain,10,2012-12-05 19:16:00
9:25 AM,71.6,69.8,94,30.12,10.0,Calm,Calm,-,0.39,Rain-Thunderstorm,Light Thunderstorms and Rain,0,2012-12-05 19:25:00
9:35 AM,71.6,69.8,94,30.13,10.0,Calm,Calm,-,0.39,Rain-Thunderstorm,Light Thunderstorms and Rain,0,2012-12-05 19:35:00
9:50 AM,71.6,69.8,94,30.11,10.0,NE,4.6,-,0.39,Rain-Thunderstorm,Light Thunderstorms and Rain,40,2012-12-05 19:50:00
9:53 AM,73.0,69.1,87,30.10,10.0,North,3.5,-,0.39,Rain-Thunderstorm,Light Thunderstorms and Rain,10,2012-12-05 19:53:00
10:00 AM,73.4,69.8,88,30.10,10.0,ENE,4.6,-,0.00,Rain-Thunderstorm,Light Thunderstorms and Rain,60,2012-12-05 20:00:00
10:15 AM,73.4,69.8,88,30.09,10.0,ENE,4.6,-,0.01,Rain,Light Rain,70,2012-12-05 20:15:00
10:40 AM,73.4,68.0,83,30.10,10.0,Calm,Calm,-,0.01,,Mostly Cloudy,0,2012-12-05 20:40:00
10:53 AM,73.9,69.1,85,30.11,10.0,WSW,4.6,-,0.01,,Mostly Cloudy,250,2012-12-05 20:53:00
11:04 AM,73.4,69.8,88,30.10,10.0,WNW,4.6,-,N/A,,Mostly Cloudy,300,2012-12-05 21:04:00
11:19 AM,75.2,69.8,83,30.09,10.0,West,3.5,-,N/A,,Overcast,270,2012-12-05 21:19:00
11:49 AM,75.2,69.8,83,30.06,10.0,Calm,Calm,-,N/A,,Scattered Clouds,0,2012-12-05 21:49:00
11:53 AM,75.9,71.1,85,30.06,10.0,Calm,Calm,-,N/A,,Partly Cloudy,0,2012-12-05 21:53:00
12:32 PM,77.0,69.8,78,30.06,10.0,Calm,Calm,-,N/A,,Mostly Cloudy,0,2012-12-05 22:32:00
12:53 PM,77.0,70.0,79,30.04,10.0,East,3.5,-,N/A,,Overcast,80,2012-12-05 22:53:00
1:45 PM,78.8,71.6,78,30.03,10.0,East,3.5,-,N/A,,Overcast,100,2012-12-05 23:45:00
1:53 PM,78.1,71.1,79,30.03,10.0,East,3.5,-,N/A,,Overcast,100,2012-12-05 23:53:00
2:07 PM,78.8,71.6,78,30.03,10.0,ESE,4.6,-,N/A,,Overcast,110,2012-12-06 00:07:00
2:20 PM,78.8,71.6,78,30.02,10.0,ESE,5.8,-,N/A,,Overcast,110,2012-12-06 00:20:00
2:53 PM,78.1,71.1,79,30.02,10.0,ESE,5.8,-,N/A,,Overcast,110,2012-12-06 00:53:00
3:16 PM,78.8,71.6,78,30.02,10.0,ESE,5.8,-,N/A,,Mostly Cloudy,110,2012-12-06 01:16:00
3:22 PM,78.8,71.6,78,30.03,10.0,ESE,4.6,-,N/A,,Overcast,110,2012-12-06 01:22:00
3:53 PM,78.1,72.0,81,30.01,10.0,ESE,5.8,-,N/A,,Scattered Clouds,120,2012-12-06 01:53:00
4:53 PM,77.0,72.0,84,29.99,10.0,East,10.4,-,N/A,,Partly Cloudy,90,2012-12-06 02:53:00
5:40 PM,77.0,71.6,83,30.02,9.0,East,6.9,-,N/A,,Mostly Cloudy,100,2012-12-06 03:40:00
5:53 PM,77.0,72.0,84,30.01,9.0,ESE,5.8,-,N/A,,Mostly Cloudy,110,2012-12-06 03:53:00
6:10 PM,75.2,71.6,89,30.02,9.0,SE,4.6,-,N/A,,Scattered Clouds,140,2012-12-06 04:10:00
6:53 PM,75.0,71.1,87,30.02,10.0,South,4.6,-,N/A,,Partly Cloudy,170,2012-12-06 04:53:00
7:53 PM,73.9,71.1,91,30.03,10.0,WSW,3.5,-,N/A,,Partly Cloudy,250,2012-12-06 05:53:00
8:53 PM,73.0,69.1,87,30.04,10.0,WSW,4.6,-,N/A,,Clear,250,2012-12-06 06:53:00
9:53 PM,72.0,69.1,91,30.04,10.0,West,6.9,-,N/A,,Partly Cloudy,280,2012-12-06 07:53:00
10:53 PM,70.0,66.9,90,30.04,10.0,West,3.5,-,N/A,,Clear,270,2012-12-06 08:53:00
11:53 PM,69.1,66.0,90,30.03,9.0,WSW,5.8,-,N/A,,Clear,240,2012-12-06 09:53:00